TITAN 3C TRANSTAGE DEB, 1716

Orbit data source: Space-Track

TITAN 3C TRANSTAGE DEB, 1716 is space debris in LEO originally from a launch on Fri, 15 Oct 1965 UTC launched from the Air Force Eastern Test Range (AFETR). Debris objects in space refer to the collection of defunct objects orbiting the Earth. Examples of debris include non-operational satellites, rocket bodies, and fragments generated from explosions, collisions, or faulty payload assembly.

Loading next visibility...
TITAN 3C TRANSTAGE DEB details
Identifier
1716, 1965-082BX
Orbit
LEO
Last TLE update1 day ago
Origin
Flag of USUSAF SSD (US)
ManufacturerUnknown
MissionSpacecraft
Bus & MotorUnknown
MassUnknown
Launch date (UTC)
1965-10-15 (59 years ago)
Launch vehicleUnknown
Launch site
Air Force Eastern Test Range (AFETR)
Object type
Payload
Rocket body
Debris
Shape & HBRUnknown
Radar Cross Section1.900 m², Large (>1 m²)

Expand to show TLE details & history

TLE from 1 day ago
0 TITAN 3C TRANSTAGE DEB
1 01716U 65082BX  25022.49681159  .00001598  00000-0  34132-3 0  9999
2 01716  32.1905  61.8431 0038483  76.3643 284.1283 14.56647876133958
Epoch: 2025-01-22T11:55Z
Definitive object data (Epoch: 2025-01-22T11:55:24.521Z)
Latitude-0.00001°
Longitude120.90307°
Altitude696.125 km
Speed7.514 km/s
True Right ascension04h 07m 22s
True Declination0° 00' 00"
Sunlit
Object was in daylight at TLE epoch
Visualization TLE readout
Latitude-32.25888°
Longitude27.99514°
Altitude738.899 km
Speed7.472 km/s
Apparent Right ascension01h 22m 16s
Apparent Declination-57° 17' 58"
Sunlit
Object is in daylight
Visualization observer readout
Local Sidereal Time18:20:40
Azimuth136.734° SSE
Elevation-40.541°
Doppler factor1
Orbital elements
Apogee altitude734.864 km
Perigee altitude680.327 km
Semi-major axis7,085.733 km
Eccentricity0.0038483
Inclination32.1905°
RAAN61.8431°
Arg. of periapsis76.3643°
True anomaly283.70016°
Mean anomaly284.1283°
Eccentric anomaly283.91428°
Mean motion3.63887 °/min
BSTAR0.00034132
Orbital period98.93 mins
Loading maneuver chart data...

TITAN 3C TRANSTAGE DEB Visibility forecast

Observer location: undefined°, undefined

Span
Click to sort rows by Start time (UTC) header in descending order
Start Az.
Max El. time (UTC)
Max El. Az.
Max El.
End time (UTC)
End Az.
4 mins2025-01-24 05:15:59.827Z185.801° SSW2025-01-24 05:17:59.827Z160.356° S14.403°2025-01-24 05:19:59.827Z133.462° SE
6 mins2025-01-24 06:59:59.827Z213.303° SW2025-01-24 07:01:59.827Z177.672° S25.783°2025-01-24 07:05:59.827Z114.491° SE
6 mins2025-01-24 08:43:59.827Z233.468° WSW2025-01-24 08:46:59.827Z174.411° S27.352°2025-01-24 08:49:59.827Z129.034° SE
5 mins2025-01-24 10:28:59.827Z225.384° WSW2025-01-24 10:30:59.827Z194.488° SSW17.996°2025-01-24 10:33:59.827Z156.079° SSE
|